| time (UTC) | temp C | wind direction | speed KPH | gust KPH | rain 1hr cm | rain 24hr cm | rain mn cm | humidity % | barometer mb |
| 20260901201058 | 16 | 240 | 8.0 | 14.5 | 0.00 | 0.20 | 0.20 | 84 | 1019.8 |
| 20260901200557 | 16 | 251 | 6.4 | 17.7 | 0.00 | 0.20 | 0.20 | 84 | 1019.9 |
| 20260901200104 | 16 | 254 | 6.4 | 19.3 | 0.00 | 0.20 | 0.20 | 84 | 1019.8 |
| 20260901195557 | 16 | 248 | 6.4 | 19.3 | 0.00 | 0.20 | 0.20 | 83 | 1019.8 |
| 20260901195058 | 16 | 250 | 6.4 | 19.3 | 0.00 | 0.20 | 0.20 | 83 | 1019.7 |
| 20260901194603 | 16 | 275 | 9.7 | 20.9 | 0.00 | 0.20 | 0.20 | 83 | 1019.7 |
| 20260901194057 | 16 | 240 | 6.4 | 20.9 | 0.00 | 0.20 | 0.20 | 82 | 1019.7 |
| 20260901193557 | 16 | 269 | 8.0 | 22.5 | 0.00 | 0.20 | 0.20 | 82 | 1019.6 |
| 20260901193101 | 16 | 269 | 11.3 | 22.5 | 0.00 | 0.20 | 0.20 | 81 | 1019.6 |
| 20260901192557 | 16 | 259 | 8.0 | 22.5 | 0.00 | 0.20 | 0.20 | 81 | 1019.6 |
| 20260901192059 | 16 | 271 | 9.7 | 19.3 | 0.00 | 0.20 | 0.20 | 81 | 1019.6 |
| 20260901191610 | 16 | 252 | 9.7 | 19.3 | 0.00 | 0.20 | 0.20 | 81 | 1019.6 |
| 20260901191058 | 16 | 260 | 9.7 | 17.7 | 0.00 | 0.20 | 0.20 | 80 | 1019.6 |
| 20260901190557 | 16 | 261 | 9.7 | 17.7 | 0.00 | 0.20 | 0.20 | 80 | 1019.6 |
| 20260901190104 | 16 | 243 | 8.0 | 17.7 | 0.00 | 0.20 | 0.20 | 80 | 1019.5 |
| 20260901185559 | 16 | 254 | 6.4 | 19.3 | 0.00 | 0.20 | 0.20 | 80 | 1019.4 |
| 20260901185057 | 17 | 245 | 8.0 | 19.3 | 0.00 | 0.20 | 0.20 | 79 | 1019.5 |
| 20260901184601 | 17 | 261 | 6.4 | 16.1 | 0.00 | 0.20 | 0.20 | 79 | 1019.3 |
| 20260901184058 | 17 | 257 | 8.0 | 19.3 | 0.00 | 0.20 | 0.20 | 79 | 1019.2 |
| 20260901183557 | 17 | 262 | 9.7 | 19.3 | 0.00 | 0.20 | 0.20 | 78 | 1019.0 |
| 20260901183103 | 17 | 265 | 9.7 | 19.3 | 0.00 | 0.20 | 0.20 | 78 | 1019.0 |
| 20260901182601 | 17 | 254 | 6.4 | 14.5 | 0.00 | 0.20 | 0.20 | 79 | 1019.0 |
| 20260901182058 | 17 | 259 | 4.8 | 12.9 | 0.00 | 0.20 | 0.20 | 78 | 1018.9 |
| 20260901181611 | 17 | 276 | 3.2 | 11.3 | 0.00 | 0.20 | 0.20 | 78 | 1018.9 |
| 20260901181057 | 17 | 267 | 3.2 | 12.9 | 0.00 | 0.20 | 0.20 | 78 | 1018.9 |
| 20260901180557 | 17 | 264 | 6.4 | 12.9 | 0.00 | 0.20 | 0.20 | 78 | 1018.8 |
| 20260901180107 | 17 | 244 | 4.8 | 12.9 | 0.00 | 0.20 | 0.20 | 78 | 1018.8 |
| 20260901175558 | 17 | 257 | 4.8 | 12.9 | 0.00 | 0.36 | 0.20 | 78 | 1018.8 |
| 20260901175057 | 17 | 233 | 4.8 | 12.9 | 0.00 | 0.36 | 0.20 | 78 | 1018.8 |
| 20260901174602 | 17 | 242 | 4.8 | 11.3 | 0.00 | 0.36 | 0.20 | 77 | 1018.7 |
| 20260901174058 | 17 | 241 | 3.2 | 11.3 | 0.00 | 0.36 | 0.20 | 77 | 1018.7 |
| 20260901173558 | 17 | 232 | 3.2 | 12.9 | 0.00 | 0.36 | 0.20 | 77 | 1018.6 |
| 20260901173103 | 18 | 248 | 4.8 | 12.9 | 0.00 | 0.36 | 0.20 | 76 | 1018.7 |
| 20260901172557 | 18 | 237 | 6.4 | 14.5 | 0.00 | 0.36 | 0.20 | 76 | 1018.6 |
| 20260901172059 | 18 | 257 | 6.4 | 17.7 | 0.00 | 0.36 | 0.20 | 75 | 1018.6 |
| 20260901171607 | 18 | 277 | 8.0 | 17.7 | 0.00 | 0.36 | 0.20 | 75 | 1018.6 |
| 20260901171058 | 18 | 268 | 8.0 | 19.3 | 0.00 | 0.36 | 0.20 | 74 | 1018.6 |
| 20260901170558 | 18 | 241 | 6.4 | 19.3 | 0.00 | 0.36 | 0.20 | 74 | 1018.7 |
| 20260901170100 | 18 | 247 | 9.7 | 19.3 | 0.00 | 0.36 | 0.20 | 74 | 1018.7 |
| 20260901165557 | 18 | 245 | 9.7 | 19.3 | 0.00 | 0.41 | 0.20 | 74 | 1018.7 |
| 20260901165058 | 18 | 257 | 11.3 | 19.3 | 0.00 | 0.41 | 0.20 | 72 | 1018.7 |
| 20260901164606 | 18 | 219 | 6.4 | 20.9 | 0.00 | 0.41 | 0.20 | 72 | 1018.7 |
| 20260901164057 | 19 | 258 | 11.3 | 20.9 | 0.00 | 0.41 | 0.20 | 70 | 1018.6 |
| 20260901163557 | 19 | 265 | 8.0 | 19.3 | 0.00 | 0.41 | 0.20 | 71 | 1018.5 |
| 20260901163107 | 19 | 281 | 9.7 | 20.9 | 0.00 | 0.41 | 0.20 | 70 | 1018.5 |
| 20260901162600 | 19 | 254 | 11.3 | 20.9 | 0.00 | 0.41 | 0.20 | 69 | 1018.4 |
| 20260901162057 | 20 | 273 | 9.7 | 20.9 | 0.00 | 0.41 | 0.20 | 69 | 1018.4 |
| 20260901161611 | 19 | 257 | 11.3 | 20.9 | 0.00 | 0.41 | 0.20 | 70 | 1018.4 |
| 20260901161058 | 19 | 299 | 12.9 | 20.9 | 0.00 | 0.41 | 0.20 | 70 | 1018.6 |
| 20260901160556 | 19 | 255 | 9.7 | 19.3 | 0.00 | 0.41 | 0.20 | 72 | 1018.5 |
| 20260901160111 | 18 | 224 | 9.7 | 19.3 | 0.00 | 0.41 | 0.20 | 72 | 1018.5 |
| 20260901155558 | 19 | 243 | 9.7 | 17.7 | 0.00 | 0.43 | 0.20 | 73 | 1018.5 |
| 20260901155102 | 18 | 272 | 8.0 | 22.5 | 0.00 | 0.43 | 0.20 | 74 | 1018.4 |
| 20260901154605 | 18 | 240 | 8.0 | 22.5 | 0.00 | 0.43 | 0.20 | 74 | 1018.5 |
| 20260901154057 | 18 | 291 | 11.3 | 20.9 | 0.00 | 0.43 | 0.20 | 73 | 1018.5 |
| 20260901153558 | 18 | 270 | 9.7 | 17.7 | 0.00 | 0.43 | 0.20 | 73 | 1018.5 |
| 20260901153105 | 18 | 267 | 8.0 | 20.9 | 0.00 | 0.43 | 0.20 | 73 | 1018.5 |
| 20260901152557 | 18 | 262 | 8.0 | 24.1 | 0.00 | 0.43 | 0.20 | 72 | 1018.5 |
| 20260901152057 | 18 | 265 | 9.7 | 25.7 | 0.00 | 0.43 | 0.20 | 71 | 1018.5 |
| 20260901151611 | 18 | 265 | 12.9 | 33.8 | 0.00 | 0.43 | 0.20 | 70 | 1018.5 |
| 20260901151059 | 18 | 250 | 17.7 | 33.8 | 0.00 | 0.43 | 0.20 | 69 | 1018.5 |
| 20260901150559 | 19 | 275 | 17.7 | 30.6 | 0.00 | 0.43 | 0.20 | 66 | 1018.5 |
| 20260901150103 | 19 | 248 | 12.9 | 29.0 | 0.00 | 0.43 | 0.20 | 67 | 1018.5 |
| 20260901145558 | 20 | 239 | 16.1 | 30.6 | 0.00 | 0.56 | 0.20 | 66 | 1018.5 |
| 20260901145059 | 20 | 276 | 11.3 | 30.6 | 0.00 | 0.56 | 0.20 | 68 | 1018.5 |
| 20260901144611 | 19 | 253 | 11.3 | 27.4 | 0.00 | 0.56 | 0.20 | 68 | 1018.4 |
| 20260901144101 | 19 | 317 | 12.9 | 27.4 | 0.00 | 0.56 | 0.20 | 72 | 1018.5 |
| 20260901143558 | 19 | 276 | 6.4 | 17.7 | 0.00 | 0.56 | 0.20 | 77 | 1018.5 |
| 20260901143105 | 19 | 275 | 4.8 | 20.9 | 0.00 | 0.56 | 0.20 | 73 | 1018.4 |
| 20260901142556 | 20 | 284 | 8.0 | 20.9 | 0.00 | 0.56 | 0.20 | 70 | 1018.3 |
| 20260901142057 | 20 | 284 | 8.0 | 19.3 | 0.00 | 0.56 | 0.20 | 71 | 1018.4 |
| 20260901141605 | 20 | 281 | 11.3 | 29.0 | 0.00 | 0.56 | 0.20 | 72 | 1018.3 |
| 20260901141058 | 19 | 271 | 9.7 | 29.0 | 0.00 | 0.56 | 0.20 | 73 | 1018.3 |
| 20260901140558 | 19 | 324 | 11.3 | 30.6 | 0.00 | 0.56 | 0.20 | 73 | 1018.4 |
| 20260901140111 | 20 | 262 | 14.5 | 30.6 | 0.00 | 0.56 | 0.20 | 70 | 1018.3 |
| 20260901135557 | 21 | 301 | 8.0 | 27.4 | 0.00 | 0.64 | 0.20 | 66 | 1018.3 |
| 20260901135058 | 21 | 260 | 16.1 | 27.4 | 0.00 | 0.64 | 0.20 | 64 | 1018.2 |
| 20260901134608 | 21 | 236 | 14.5 | 29.0 | 0.00 | 0.64 | 0.20 | 62 | 1018.3 |
| 20260901134100 | 21 | 273 | 14.5 | 29.0 | 0.00 | 0.64 | 0.20 | 62 | 1018.4 |
| 20260901133557 | 22 | 277 | 16.1 | 29.0 | 0.00 | 0.64 | 0.20 | 60 | 1018.3 |
| 20260901133105 | 22 | 279 | 14.5 | 29.0 | 0.00 | 0.64 | 0.20 | 58 | 1018.2 |
| 20260901132557 | 22 | 260 | 17.7 | 33.8 | 0.00 | 0.64 | 0.20 | 59 | 1018.1 |
| 20260901132057 | 22 | 277 | 19.3 | 33.8 | 0.00 | 0.64 | 0.20 | 57 | 1018.1 |
| 20260901131602 | 22 | 277 | 12.9 | 29.0 | 0.00 | 0.64 | 0.20 | 58 | 1018.1 |
| 20260901131100 | 22 | 258 | 16.1 | 29.0 | 0.00 | 0.64 | 0.20 | 59 | 1018.2 |
| 20260901130557 | 22 | 250 | 16.1 | 30.6 | 0.00 | 0.64 | 0.20 | 60 | 1018.2 |
| 20260901130106 | 21 | 279 | 17.7 | 30.6 | 0.00 | 0.64 | 0.20 | 60 | 1018.2 |
| 20260901125558 | 21 | 242 | 14.5 | 30.6 | 0.00 | 0.64 | 0.20 | 63 | 1018.2 |
| 20260901125057 | 22 | 252 | 19.3 | 30.6 | 0.00 | 0.64 | 0.20 | 61 | 1018.1 |
| 20260901124602 | 22 | 250 | 14.5 | 25.7 | 0.00 | 0.64 | 0.20 | 62 | 1018.1 |
| 20260901124058 | 22 | 255 | 12.9 | 27.4 | 0.00 | 0.64 | 0.20 | 59 | 1018.2 |
| 20260901123558 | 22 | 274 | 16.1 | 27.4 | 0.00 | 0.64 | 0.20 | 60 | 1018.2 |
| 20260901123102 | 22 | 273 | 16.1 | 27.4 | 0.00 | 0.64 | 0.20 | 62 | 1018.2 |
| 20260901122557 | 21 | 279 | 14.5 | 29.0 | 0.00 | 0.64 | 0.20 | 63 | 1018.2 |
| 20260901122056 | 21 | 263 | 14.5 | 29.0 | 0.00 | 0.64 | 0.20 | 62 | 1018.2 |
| 20260901121559 | 22 | 209 | 12.9 | 29.0 | 0.00 | 0.64 | 0.20 | 61 | 1018.1 |
| 20260901121058 | 22 | 259 | 16.1 | 29.0 | 0.00 | 0.64 | 0.20 | 61 | 1018.1 |
| 20260901120558 | 22 | 287 | 16.1 | 25.7 | 0.00 | 0.64 | 0.20 | 61 | 1018.1 |
| 20260901120105 | 22 | 236 | 14.5 | 27.4 | 0.00 | 0.64 | 0.20 | 64 | 1018.2 |
| 20260901115557 | 21 | 240 | 14.5 | 27.4 | 0.00 | 0.64 | 0.20 | 64 | 1018.2 |
| 20260901115057 | 21 | 281 | 14.5 | 24.1 | 0.00 | 0.64 | 0.20 | 65 | 1018.2 |
| 20260901114645 | 21 | 232 | 12.9 | 24.1 | 0.00 | 0.64 | 0.20 | 66 | 1018.2 |
| 20260901114058 | 21 | 244 | 12.9 | 25.7 | 0.00 | 0.64 | 0.20 | 66 | 1018.3 |
| 20260901113557 | 21 | 267 | 16.1 | 30.6 | 0.00 | 0.64 | 0.20 | 65 | 1018.3 |
| 20260901113101 | 20 | 235 | 19.3 | 32.2 | 0.00 | 0.64 | 0.20 | 65 | 1018.3 |
| 20260901112556 | 21 | 250 | 16.1 | 32.2 | 0.00 | 0.64 | 0.20 | 66 | 1018.3 |
| 20260901112057 | 21 | 263 | 16.1 | 32.2 | 0.00 | 0.64 | 0.20 | 66 | 1018.3 |
| 20260901111620 | 21 | 244 | 17.7 | 32.2 | 0.00 | 0.64 | 0.20 | 64 | 1018.3 |
| 20260901111058 | 21 | 265 | 14.5 | 30.6 | 0.00 | 0.64 | 0.20 | 65 | 1018.2 |
| 20260901110559 | 21 | 267 | 16.1 | 30.6 | 0.00 | 0.64 | 0.20 | 65 | 1018.2 |
| 20260901110104 | 21 | 273 | 16.1 | 30.6 | 0.00 | 0.64 | 0.20 | 66 | 1018.2 |
| 20260901105558 | 20 | 273 | 14.5 | 30.6 | 0.00 | 0.64 | 0.20 | 67 | 1018.2 |
| 20260901105058 | 20 | 239 | 14.5 | 30.6 | 0.00 | 0.64 | 0.20 | 67 | 1018.3 |
| 20260901104603 | 20 | 277 | 16.1 | 30.6 | 0.00 | 0.64 | 0.20 | 67 | 1018.2 |
| 20260901104057 | 21 | 251 | 17.7 | 32.2 | 0.00 | 0.64 | 0.20 | 65 | 1018.2 |
| 20260901103557 | 21 | 252 | 16.1 | 32.2 | 0.00 | 0.64 | 0.20 | 70 | 1018.1 |
| 20260901103059 | 20 | 259 | 11.3 | 27.4 | 0.00 | 0.64 | 0.20 | 69 | 1018.2 |
| 20260901102557 | 21 | 251 | 14.5 | 37.0 | 0.00 | 0.64 | 0.20 | 69 | 1018.1 |
| 20260901102102 | 20 | 275 | 17.7 | 37.0 | 0.00 | 0.64 | 0.20 | 70 | 1018.2 |
| 20260901101607 | 20 | 281 | 20.9 | 35.4 | 0.00 | 0.64 | 0.20 | 69 | 1018.3 |
| 20260901101056 | 20 | 248 | 12.9 | 27.4 | 0.00 | 0.64 | 0.20 | 69 | 1018.2 |
| 20260901100557 | 20 | 246 | 12.9 | 27.4 | 0.00 | 0.64 | 0.20 | 74 | 1018.2 |
| 20260901100107 | 19 | 254 | 14.5 | 27.4 | 0.00 | 0.64 | 0.20 | 73 | 1018.1 |
| 20260901095601 | 19 | 229 | 12.9 | 29.0 | 0.00 | 0.64 | 0.20 | 76 | 1018.1 |
| 20260901095058 | 18 | 250 | 11.3 | 29.0 | 0.00 | 0.64 | 0.20 | 76 | 1018.1 |
| 20260901094604 | 18 | 232 | 14.5 | 25.7 | 0.00 | 0.64 | 0.20 | 78 | 1018.1 |
| 20260901094056 | 18 | 255 | 11.3 | 27.4 | 0.00 | 0.64 | 0.20 | 79 | 1018.1 |
| 20260901093557 | 18 | 259 | 14.5 | 27.4 | 0.00 | 0.64 | 0.20 | 79 | 1018.1 |
| 20260901093104 | 18 | 268 | 17.7 | 27.4 | 0.00 | 0.64 | 0.20 | 78 | 1018.1 |
| 20260901092557 | 18 | 244 | 12.9 | 27.4 | 0.00 | 0.64 | 0.20 | 78 | 1018.0 |
| 20260901092057 | 18 | 271 | 8.0 | 27.4 | 0.00 | 0.64 | 0.20 | 78 | 1018.1 |
| 20260901091612 | 18 | 271 | 4.8 | 27.4 | 0.00 | 0.64 | 0.20 | 81 | 1018.0 |
| 20260901091056 | 18 | 294 | 11.3 | 27.4 | 0.00 | 0.64 | 0.20 | 81 | 1018.1 |
| 20260901090556 | 17 | 260 | 14.5 | 29.0 | 0.00 | 0.64 | 0.20 | 81 | 1018.0 |
| 20260901090108 | 18 | 254 | 12.9 | 29.0 | 0.00 | 0.64 | 0.20 | 80 | 1018.0 |
| 20260901085557 | 18 | 286 | 11.3 | 24.1 | 0.00 | 0.64 | 0.20 | 82 | 1018.0 |
| 20260901085100 | 17 | 265 | 12.9 | 25.7 | 0.00 | 0.64 | 0.20 | 82 | 1017.9 |
| 20260901084608 | 17 | 257 | 11.3 | 25.7 | 0.00 | 0.64 | 0.20 | 83 | 1017.9 |
| 20260901084057 | 17 | 262 | 16.1 | 25.7 | 0.00 | 0.64 | 0.20 | 83 | 1017.9 |
| 20260901083558 | 17 | 269 | 14.5 | 27.4 | 0.00 | 0.64 | 0.20 | 84 | 1017.8 |
| 20260901083107 | 17 | 250 | 12.9 | 27.4 | 0.00 | 0.64 | 0.20 | 85 | 1017.8 |
| 20260901082557 | 17 | 259 | 14.5 | 22.5 | 0.00 | 0.64 | 0.20 | 85 | 1017.8 |
| 20260901082059 | 17 | 223 | 11.3 | 22.5 | 0.00 | 0.64 | 0.20 | 86 | 1017.8 |
| 20260901081607 | 17 | 234 | 9.7 | 27.4 | 0.00 | 0.64 | 0.20 | 87 | 1017.8 |
| 20260901081056 | 17 | 259 | 11.3 | 27.4 | 0.00 | 0.64 | 0.20 | 87 | 1017.8 |
| 20260901080556 | 17 | 253 | 12.9 | 27.4 | 0.00 | 0.64 | 0.20 | 88 | 1017.8 |
| 20260901080104 | 17 | 248 | 14.5 | 27.4 | 0.00 | 0.64 | 0.20 | 88 | 1017.7 |
| 20260901075556 | 16 | 250 | 12.9 | 24.1 | 0.18 | 0.64 | 0.20 | 90 | 1017.7 |
| 20260901075057 | 16 | 229 | 12.9 | 24.1 | 0.18 | 0.64 | 0.20 | 90 | 1017.7 |
| 20260901074603 | 16 | 238 | 11.3 | 20.9 | 0.18 | 0.64 | 0.20 | 90 | 1017.6 |
| 20260901074058 | 16 | 254 | 11.3 | 20.9 | 0.20 | 0.64 | 0.20 | 91 | 1017.6 |
| 20260901073557 | 16 | 256 | 11.3 | 20.9 | 0.20 | 0.64 | 0.20 | 91 | 1017.6 |
| 20260901073121 | 16 | 254 | 6.4 | 19.3 | 0.20 | 0.64 | 0.20 | 91 | 1017.6 |
| 20260901072558 | 16 | 239 | 6.4 | 16.1 | 0.20 | 0.64 | 0.20 | 92 | 1017.5 |
| 20260901072057 | 15 | 241 | 6.4 | 16.1 | 0.20 | 0.64 | 0.20 | 91 | 1017.6 |
| 20260901071606 | 15 | 271 | 6.4 | 14.5 | 0.20 | 0.64 | 0.20 | 91 | 1017.5 |
| 20260901071057 | 15 | 238 | 6.4 | 14.5 | 0.18 | 0.61 | 0.18 | 90 | 1017.5 |
| 20260901070558 | 15 | 256 | 4.8 | 14.5 | 0.18 | 0.61 | 0.18 | 89 | 1017.5 |
| 20260901070115 | 16 | 278 | 6.4 | 17.7 | 0.18 | 0.61 | 0.18 | 89 | 1017.5 |
| 20260901065557 | 16 | 269 | 6.4 | 22.5 | 0.03 | 0.46 | 0.03 | 88 | 1017.5 |
| 20260901065056 | 16 | 255 | 11.3 | 24.1 | 0.00 | 0.43 | 0.00 | 87 | 1017.4 |
| 20260901064610 | 16 | 277 | 11.3 | 24.1 | 0.00 | 0.43 | 0.00 | 85 | 1017.4 |
| 20260901064057 | 16 | 254 | 11.3 | 24.1 | 0.00 | 0.41 | 0.00 | 85 | 1017.2 |
| 20260901063556 | 16 | 258 | 12.9 | 24.1 | 0.00 | 0.41 | 0.00 | 85 | 1017.2 |
| 20260901063104 | 16 | 271 | 12.9 | 24.1 | 0.00 | 0.41 | 0.00 | 85 | 1017.2 |
| 20260901062559 | 16 | 253 | 11.3 | 19.3 | 0.00 | 0.41 | 0.00 | 86 | 1017.2 |
| 20260901062059 | 16 | 233 | 11.3 | 24.1 | 0.00 | 0.41 | 0.00 | 86 | 1017.2 |
| 20260901061606 | 15 | 245 | 8.0 | 24.1 | 0.00 | 0.41 | 0.00 | 86 | 1017.1 |
| 20260901061058 | 15 | 234 | 11.3 | 20.9 | 0.00 | 0.41 | 0.00 | 86 | 1017.1 |
| 20260901060557 | 15 | 217 | 8.0 | 20.9 | 0.00 | 0.41 | 0.00 | 87 | 1017.0 |
| 20260901060103 | 15 | 248 | 9.7 | 25.7 | 0.00 | 0.41 | 0.00 | 86 | 1017.0 |
| 20260901055556 | 15 | 232 | 11.3 | 25.7 | 0.00 | 0.41 | 0.00 | 87 | 1017.0 |
| 20260901055057 | 15 | 229 | 8.0 | 19.3 | 0.00 | 0.41 | 0.00 | 87 | 1016.9 |
| 20260901054605 | 15 | 244 | 9.7 | 19.3 | 0.00 | 0.41 | 0.00 | 87 | 1016.8 |
| 20260901054057 | 15 | 248 | 8.0 | 16.1 | 0.00 | 0.41 | 0.00 | 87 | 1016.8 |
| 20260901053559 | 15 | 232 | 8.0 | 16.1 | 0.00 | 0.41 | 0.00 | 87 | 1016.8 |
| 20260901053114 | 15 | 249 | 8.0 | 16.1 | 0.00 | 0.41 | 0.00 | 87 | 1016.8 |
| 20260901052556 | 15 | 243 | 6.4 | 14.5 | 0.00 | 0.41 | 0.00 | 88 | 1016.7 |
| 20260901052056 | 15 | 235 | 4.8 | 17.7 | 0.00 | 0.41 | 0.00 | 87 | 1016.6 |
| 20260901051604 | 15 | 243 | 9.7 | 17.7 | 0.00 | 0.41 | 0.00 | 87 | 1016.6 |
| 20260901051056 | 15 | 227 | 6.4 | 16.1 | 0.00 | 0.41 | 0.00 | 87 | 1016.6 |
| 20260901050629 | 15 | 249 | 6.4 | 17.7 | 0.00 | 0.41 | 0.00 | 87 | 1016.6 |
| 20260901050104 | 15 | 239 | 6.4 | 17.7 | 0.00 | 0.41 | 0.00 | 87 | 1016.4 |
| 20260901045558 | 15 | 265 | 11.3 | 17.7 | 0.00 | 0.41 | 0.00 | 87 | 1016.4 |
| 20260901045057 | 15 | 277 | 9.7 | 17.7 | 0.00 | 0.41 | 0.00 | 87 | 1016.4 |
| 20260901044601 | 15 | 229 | 6.4 | 16.1 | 0.00 | 0.41 | 0.00 | 87 | 1016.3 |
| 20260901044058 | 15 | 237 | 8.0 | 20.9 | 0.00 | 0.41 | 0.00 | 87 | 1016.2 |
| 20260901043557 | 15 | 246 | 8.0 | 20.9 | 0.00 | 0.41 | 0.00 | 87 | 1016.2 |
| 20260901043059 | 15 | 242 | 8.0 | 19.3 | 0.00 | 0.41 | 0.00 | 87 | 1016.1 |
| 20260901042555 | 15 | 250 | 6.4 | 19.3 | 0.00 | 0.41 | 0.00 | 87 | 1016.1 |
| 20260901042056 | 15 | 254 | 8.0 | 19.3 | 0.00 | 0.41 | 0.00 | 87 | 1016.1 |
| 20260901041604 | 15 | 247 | 9.7 | 16.1 | 0.00 | 0.41 | 0.00 | 87 | 1016.1 |
| 20260901041057 | 15 | 266 | 9.7 | 19.3 | 0.00 | 0.41 | 0.00 | 86 | 1016.0 |
| 20260901040556 | 15 | 244 | 8.0 | 19.3 | 0.00 | 0.41 | 0.00 | 86 | 1015.9 |
| 20260901040105 | 15 | 255 | 8.0 | 20.9 | 0.00 | 0.41 | 0.00 | 86 | 1015.8 |
| 20260901035556 | 15 | 234 | 9.7 | 20.9 | 0.00 | 0.41 | 0.00 | 86 | 1015.8 |
| 20260901035056 | 15 | 228 | 8.0 | 17.7 | 0.00 | 0.41 | 0.00 | 86 | 1015.8 |
| 20260901034602 | 15 | 257 | 9.7 | 17.7 | 0.00 | 0.41 | 0.00 | 86 | 1015.8 |
| 20260901034055 | 15 | 248 | 8.0 | 17.7 | 0.00 | 0.41 | 0.00 | 86 | 1015.8 |
| 20260901033555 | 15 | 252 | 8.0 | 16.1 | 0.00 | 0.41 | 0.00 | 86 | 1015.7 |
| 20260901033119 | 15 | 259 | 8.0 | 16.1 | 0.00 | 0.41 | 0.00 | 86 | 1015.7 |
| 20260901032559 | 15 | 262 | 8.0 | 17.7 | 0.00 | 0.41 | 0.00 | 86 | 1015.6 |
| 20260901032056 | 15 | 275 | 9.7 | 17.7 | 0.00 | 0.41 | 0.00 | 86 | 1015.6 |
| 20260901031604 | 15 | 257 | 9.7 | 19.3 | 0.00 | 0.41 | 0.00 | 86 | 1015.7 |
| 20260901031055 | 15 | 260 | 9.7 | 19.3 | 0.00 | 0.41 | 0.00 | 85 | 1015.6 |
| 20260901030556 | 15 | 254 | 9.7 | 24.1 | 0.00 | 0.41 | 0.00 | 85 | 1015.6 |
| 20260901030107 | 15 | 279 | 12.9 | 24.1 | 0.00 | 0.41 | 0.00 | 85 | 1015.6 |
| 20260901025556 | 15 | 261 | 8.0 | 19.3 | 0.00 | 0.41 | 0.00 | 85 | 1015.5 |
| 20260901025056 | 15 | 265 | 9.7 | 19.3 | 0.00 | 0.41 | 0.00 | 85 | 1015.4 |
| 20260901024603 | 15 | 252 | 9.7 | 24.1 | 0.00 | 0.41 | 0.00 | 85 | 1015.4 |
| 20260901024055 | 15 | 250 | 11.3 | 24.1 | 0.00 | 0.41 | 0.00 | 85 | 1015.4 |
| 20260901023555 | 15 | 253 | 11.3 | 24.1 | 0.00 | 0.41 | 0.00 | 85 | 1015.4 |
| 20260901023104 | 15 | 288 | 9.7 | 22.5 | 0.00 | 0.41 | 0.00 | 85 | 1015.4 |
| 20260901022555 | 15 | 266 | 8.0 | 24.1 | 0.00 | 0.41 | 0.00 | 85 | 1015.4 |
| 20260901022055 | 15 | 258 | 12.9 | 24.1 | 0.00 | 0.41 | 0.00 | 85 | 1015.4 |
| 20260901021610 | 15 | 236 | 11.3 | 24.1 | 0.00 | 0.41 | 0.00 | 85 | 1015.3 |
| 20260901021055 | 15 | 265 | 9.7 | 24.1 | 0.00 | 0.41 | 0.00 | 85 | 1015.3 |
| 20260901020555 | 15 | 262 | 9.7 | 27.4 | 0.00 | 0.41 | 0.00 | 85 | 1015.3 |
| 20260901020119 | 15 | 251 | 9.7 | 27.4 | 0.00 | 0.41 | 0.00 | 85 | 1015.2 |
| 20260901015558 | 15 | 294 | 12.9 | 25.7 | 0.00 | 0.41 | 0.00 | 85 | 1015.3 |
| 20260901015058 | 15 | 265 | 11.3 | 25.7 | 0.00 | 0.41 | 0.00 | 85 | 1015.2 |
| 20260901014601 | 15 | 265 | 11.3 | 25.7 | 0.00 | 0.41 | 0.00 | 85 | 1015.2 |
| 20260901014058 | 15 | 238 | 9.7 | 20.9 | 0.00 | 0.41 | 0.00 | 85 | 1015.2 |
| 20260901013558 | 15 | 263 | 8.0 | 22.5 | 0.00 | 0.41 | 0.00 | 85 | 1015.2 |
| 20260901013115 | 15 | 257 | 9.7 | 22.5 | 0.00 | 0.41 | 0.00 | 85 | 1015.2 |
| 20260901012557 | 15 | 253 | 8.0 | 22.5 | 0.00 | 0.41 | 0.00 | 85 | 1015.2 |
| 20260901012058 | 15 | 248 | 9.7 | 20.9 | 0.00 | 0.41 | 0.00 | 85 | 1015.1 |
| 20260901011621 | 15 | 281 | 11.3 | 22.5 | 0.00 | 0.41 | 0.00 | 85 | 1015.1 |
| 20260901011057 | 15 | 270 | 12.9 | 22.5 | 0.00 | 0.41 | 0.00 | 86 | 1015.1 |
| 20260901010558 | 15 | 254 | 9.7 | 19.3 | 0.00 | 0.41 | 0.00 | 86 | 1015.1 |
| 20260901010117 | 15 | 280 | 11.3 | 22.5 | 0.00 | 0.41 | 0.00 | 86 | 1015.1 |
| 20260901005558 | 15 | 264 | 11.3 | 22.5 | 0.00 | 0.41 | 0.00 | 86 | 1015.1 |
| 20260901005059 | 15 | 246 | 12.9 | 19.3 | 0.00 | 0.41 | 0.00 | 86 | 1015.1 |
| 20260901004604 | 15 | 244 | 8.0 | 19.3 | 0.00 | 0.41 | 0.00 | 86 | 1015.0 |
| 20260901004057 | 15 | 269 | 11.3 | 20.9 | 0.00 | 0.41 | 0.00 | 86 | 1015.0 |
| 20260901003600 | 15 | 238 | 8.0 | 22.5 | 0.00 | 0.41 | 0.00 | 86 | 1015.0 |
| 20260901003105 | 15 | 258 | 12.9 | 27.4 | 0.00 | 0.41 | 0.00 | 86 | 1014.9 |
| 20260901002601 | 15 | 271 | 12.9 | 27.4 | 0.00 | 0.41 | 0.00 | 86 | 1014.9 |
| 20260901002100 | 15 | 265 | 11.3 | 25.7 | 0.00 | 0.41 | 0.00 | 86 | 1014.9 |
| 20260901001604 | 15 | 267 | 11.3 | 24.1 | 0.00 | 0.41 | 0.00 | 86 | 1014.9 |
| 20260901001057 | 15 | 262 | 11.3 | 24.1 | 0.00 | 0.41 | 0.00 | 86 | 1014.8 |
| 20260901000558 | 15 | 262 | 8.0 | 24.1 | 0.00 | 0.41 | 0.00 | 86 | 1014.8 |
| 20260901000104 | 15 | 284 | 11.3 | 24.1 | 0.00 | 0.41 | 0.00 | 86 | 1014.7 |
| 20260831235558 | 15 | 260 | 8.0 | 22.5 | 0.00 | 0.41 | 0.00 | 86 | 1014.7 |
| 20260831235058 | 15 | 274 | 11.3 | 25.7 | 0.00 | 0.41 | 0.00 | 86 | 1014.6 |
| 20260831234604 | 15 | 302 | 12.9 | 29.0 | 0.00 | 0.41 | 0.00 | 86 | 1014.5 |
| 20260831234057 | 15 | 234 | 12.9 | 29.0 | 0.00 | 0.41 | 0.00 | 86 | 1014.5 |
| 20260831233558 | 15 | 261 | 11.3 | 25.7 | 0.00 | 0.41 | 0.00 | 86 | 1014.4 |
| 20260831233103 | 15 | 240 | 12.9 | 24.1 | 0.00 | 0.41 | 0.00 | 86 | 1014.5 |
| 20260831232559 | 15 | 274 | 12.9 | 22.5 | 0.00 | 0.41 | 0.00 | 86 | 1014.3 |
| 20260831232100 | 15 | 260 | 12.9 | 29.0 | 0.00 | 0.41 | 0.00 | 86 | 1014.2 |
| 20260831231604 | 15 | 258 | 11.3 | 29.0 | 0.00 | 0.41 | 0.00 | 87 | 1014.2 |
| 20260831231057 | 15 | 257 | 16.1 | 29.0 | 0.00 | 0.41 | 0.00 | 87 | 1014.2 |
| 20260831230601 | 15 | 238 | 11.3 | 22.5 | 0.00 | 0.41 | 0.00 | 87 | 1014.1 |
| 20260831230120 | 15 | 262 | 11.3 | 24.1 | 0.00 | 0.41 | 0.00 | 88 | 1014.2 |
| 20260831225601 | 15 | 258 | 12.9 | 24.1 | 0.00 | 0.41 | 0.00 | 88 | 1014.2 |
| 20260831225058 | 15 | 233 | 9.7 | 22.5 | 0.00 | 0.41 | 0.00 | 89 | 1014.1 |
| 20260831224611 | 15 | 238 | 9.7 | 22.5 | 0.00 | 0.41 | 0.00 | 88 | 1014.1 |
| 20260831224101 | 15 | 241 | 12.9 | 22.5 | 0.00 | 0.41 | 0.00 | 88 | 1014.0 |
| 20260831223559 | 15 | 262 | 12.9 | 22.5 | 0.00 | 0.41 | 0.00 | 88 | 1014.0 |
| 20260831223101 | 15 | 238 | 12.9 | 24.1 | 0.00 | 0.41 | 0.00 | 88 | 1014.0 |
| 20260831222556 | 15 | 243 | 14.5 | 27.4 | 0.00 | 0.41 | 0.00 | 88 | 1014.0 |
| 20260831222059 | 15 | 262 | 11.3 | 27.4 | 0.00 | 0.41 | 0.00 | 89 | 1014.0 |
| 20260831221610 | 15 | 256 | 12.9 | 24.1 | 0.00 | 0.41 | 0.00 | 90 | 1013.9 |
| 20260831221057 | 14 | 251 | 11.3 | 24.1 | 0.00 | 0.41 | 0.00 | 90 | 1014.0 |
| 20260831220557 | 14 | 243 | 9.7 | 16.1 | 0.00 | 0.41 | 0.00 | 90 | 1014.0 |
| 20260831220115 | 14 | 247 | 6.4 | 16.1 | 0.00 | 0.41 | 0.00 | 90 | 1013.9 |
| 20260831215556 | 14 | 234 | 6.4 | 16.1 | 0.00 | 0.41 | 0.41 | 90 | 1013.8 |
| 20260831215056 | 14 | 247 | 6.4 | 16.1 | 0.00 | 0.41 | 0.41 | 90 | 1013.8 |
| 20260831214610 | 14 | 244 | 6.4 | 19.3 | 0.00 | 0.41 | 0.41 | 90 | 1013.8 |
| 20260831214055 | 14 | 238 | 9.7 | 19.3 | 0.00 | 0.41 | 0.41 | 90 | 1013.8 |
| 20260831213556 | 14 | 246 | 6.4 | 17.7 | 0.00 | 0.41 | 0.41 | 90 | 1013.7 |
| 20260831213058 | 14 | 225 | 8.0 | 17.7 | 0.00 | 0.41 | 0.41 | 90 | 1013.6 |
| 20260831212556 | 13 | 237 | 8.0 | 16.1 | 0.00 | 0.41 | 0.41 | 90 | 1013.6 |
| 20260831212058 | 13 | 230 | 6.4 | 19.3 | 0.00 | 0.41 | 0.41 | 90 | 1013.6 |
| 20260831211608 | 14 | 239 | 4.8 | 19.3 | 0.00 | 0.41 | 0.41 | 90 | 1013.5 |
| 20260831211056 | 14 | 229 | 6.4 | 16.1 | 0.00 | 0.41 | 0.41 | 89 | 1013.3 |
| 20260831210555 | 14 | 236 | 6.4 | 16.1 | 0.00 | 0.41 | 0.41 | 89 | 1013.3 |
| 20260831210100 | 14 | 248 | 8.0 | 16.1 | 0.00 | 0.41 | 0.41 | 89 | 1013.4 |
| 20260831205556 | 14 | 238 | 8.0 | 17.7 | 0.00 | 0.41 | 0.41 | 89 | 1013.4 |
| 20260831205057 | 14 | 236 | 6.4 | 17.7 | 0.00 | 0.41 | 0.41 | 89 | 1013.4 |
| 20260831204603 | 14 | 261 | 6.4 | 17.7 | 0.00 | 0.41 | 0.41 | 89 | 1013.4 |
| 20260831204056 | 14 | 236 | 8.0 | 17.7 | 0.00 | 0.41 | 0.41 | 89 | 1013.4 |
| 20260831203558 | 14 | 244 | 9.7 | 19.3 | 0.00 | 0.41 | 0.41 | 89 | 1013.3 |
| 20260831203108 | 14 | 227 | 8.0 | 20.9 | 0.00 | 0.41 | 0.41 | 90 | 1013.2 |
| 20260831202555 | 14 | 217 | 11.3 | 20.9 | 0.00 | 0.41 | 0.41 | 90 | 1013.2 |
| 20260831202056 | 14 | 225 | 8.0 | 19.3 | 0.00 | 0.41 | 0.41 | 90 | 1013.2 |
| 20260831201601 | 14 | 242 | 9.7 | 19.3 | 0.00 | 0.41 | 0.41 | 90 | 1013.1 |